Quick links : Home Page : Contact Us : Index : Site Map : Search Site : Ephemerides


61P/Shajn-Schaldach

Orbital Elements

The following orbital elements are taken from MPC 63377:
61P/Shajn-Schaldach
Epoch 2008 Sept. 11.0 TT = JDT 2454720.5
T 2008 Sept. 6.0737 TT                                  MPC
q   2.107991             (2000.0)            P               Q
n   0.1398566      Peri.  221.6212      +0.9071709      -0.4196625
a   3.675763       Node   163.1168      +0.4083927      +0.8608085
e   0.426516       Incl.    6.0091      +0.1012737      +0.2879097
P   7.05
From 138 observations 1985-2008, mean residual 0".8.  Nongravitational
     parameters A1 = +0.53, A2 = -0.1732.
Elements are also available for the current standard epoch:
61P/Shajn-Schaldach
Epoch 2008 Nov. 30.0 TT = JDT 2454800.5
T 2008 Sept. 6.0879 TT                                  MPC
q   2.108006             (2000.0)            P               Q
n   0.1398302      Peri.  221.6274      +0.9071334      -0.4197433
a   3.676224       Node   163.1157      +0.4084697      +0.8607714
e   0.426584       Incl.    6.0090      +0.1012987      +0.2879029
P   7.05
An explanation of the orbital elements is available.

These orbital elements are also available in forms suitable for loading into a number of popular planetarium-type software programs.


Ephemeris

The following ephemeris is at intervals of five days. A daily ephemeris covering the same time interval is also available.

Personalized ephemerides for this (and other) objects may be generated using the Minor Planet & Comet Ephemeris Service.

Recent magnitude estimates for this comet (as reported to the ICQ) may be available.

Date    TT    R. A. (2000) Decl.     Delta      r     Elong.  Phase   m1    m2

WARNING!

This comet gets close to the sun during the period covered in the ephemeris below. Observers are warned to be wary of observing comets near the sun. NEVER point any kind of optical instrument at the sun--instant blindness will be the probable result.

2008 09 11 03 23.81 +12 25.2 1.456 2.108 116.6 25.3 14.9 19.1 2008 09 16 03 27.63 +12 14.7 1.413 2.109 120.5 24.2 14.9 19.0 2008 09 21 03 30.73 +12 00.8 1.372 2.111 124.6 23.0 14.8 18.9 2008 09 26 03 33.08 +11 43.6 1.334 2.114 129.0 21.6 14.8 18.8 2008 10 01 03 34.65 +11 23.6 1.299 2.117 133.5 20.1 14.7 18.7 2008 10 06 03 35.40 +11 01.1 1.268 2.121 138.1 18.3 14.7 18.6 2008 10 11 03 35.37 +10 36.5 1.241 2.125 143.0 16.4 14.7 18.5 2008 10 16 03 34.58 +10 10.5 1.219 2.130 148.0 14.4 14.6 18.4 2008 10 21 03 33.08 +09 43.7 1.201 2.136 153.0 12.2 14.6 18.3 2008 10 26 03 30.95 +09 16.8 1.188 2.143 158.1 10.0 14.6 18.2 2008 10 31 03 28.30 +08 50.8 1.181 2.150 162.9 7.8 14.7 18.1 2008 11 05 03 25.26 +08 26.4 1.180 2.158 167.1 5.9 14.7 18.0 2008 11 10 03 22.01 +08 04.5 1.185 2.166 169.6 4.7 14.8 18.0 2008 11 15 03 18.69 +07 46.0 1.196 2.175 169.2 4.9 14.8 18.0 2008 11 20 03 15.47 +07 31.3 1.213 2.185 166.2 6.2 14.9 18.1 2008 11 25 03 12.50 +07 21.1 1.236 2.195 161.8 8.1 15.0 18.2 2008 11 30 03 09.90 +07 15.7 1.265 2.206 156.9 10.1 15.1 18.4 2008 12 05 03 07.81 +07 15.1 1.300 2.218 151.8 12.1 15.2 18.5 2008 12 10 03 06.30 +07 19.4 1.340 2.230 146.7 14.0 15.3 18.7 2008 12 15 03 05.43 +07 28.4 1.385 2.242 141.8 15.8 15.5 18.8 2008 12 20 03 05.23 +07 41.7 1.434 2.255 136.9 17.3 15.6 19.0 2008 12 25 03 05.70 +07 58.9 1.488 2.268 132.2 18.7 15.8 19.1 2008 12 30 03 06.85 +08 19.7 1.545 2.282 127.6 20.0 15.9 19.2 2009 01 04 03 08.66 +08 43.7 1.606 2.297 123.1 21.0 16.1 19.4 2009 01 09 03 11.11 +09 10.2 1.671 2.311 118.8 21.9 16.2 19.5 2009 01 14 03 14.15 +09 38.9 1.737 2.327 114.7 22.6 16.4 19.6 2009 01 19 03 17.74 +10 09.3 1.807 2.342 110.6 23.1 16.5 19.7 2009 01 24 03 21.86 +10 41.0 1.878 2.358 106.7 23.6 16.7 19.8 2009 01 29 03 26.47 +11 13.7 1.951 2.374 102.9 23.8 16.8 19.9 2009 02 03 03 31.52 +11 46.9 2.026 2.391 99.2 24.0 17.0 20.1 2009 02 08 03 36.99 +12 20.4 2.102 2.408 95.6 24.1 17.2 20.1 2009 02 13 03 42.82 +12 53.8 2.179 2.425 92.1 24.0 17.3 20.2 2009 02 18 03 49.00 +13 27.0 2.257 2.443 88.7 23.9 17.5 20.3 2009 02 23 03 55.48 +13 59.5 2.335 2.461 85.3 23.6 17.6 20.4 2009 02 28 04 02.26 +14 31.3 2.414 2.479 82.1 23.3 17.8 20.5 2009 03 05 04 09.29 +15 02.1 2.492 2.498 78.8 22.9 17.9 20.6 2009 03 10 04 16.55 +15 31.8 2.571 2.516 75.7 22.5 18.1 20.6 2009 03 15 04 24.02 +16 00.1 2.649 2.535 72.5 22.0 18.2 20.7 2009 03 20 04 31.68 +16 26.9 2.727 2.554 69.5 21.4 18.4 20.8 2009 03 25 04 39.50 +16 52.2 2.805 2.574 66.4 20.8 18.5 20.8 2009 03 30 04 47.47 +17 15.7 2.881 2.593 63.5 20.2 18.6 20.9 2009 04 04 04 55.58 +17 37.5 2.956 2.613 60.5 19.5 18.8 20.9 2009 04 09 05 03.79 +17 57.3 3.031 2.633 57.6 18.7 18.9 21.0 2009 04 14 05 12.09 +18 15.3 3.103 2.653 54.7 18.0 19.1 21.0 2009 04 19 05 20.48 +18 31.2 3.175 2.673 51.8 17.2 19.2 21.1 2009 04 24 05 28.93 +18 45.2 3.245 2.693 49.0 16.4 19.3 21.1 2009 04 29 05 37.43 +18 57.0 3.313 2.714 46.1 15.5 19.4 21.1 2009 05 04 05 45.97 +19 06.8 3.379 2.734 43.3 14.6 19.6 21.1 2009 05 09 05 54.54 +19 14.5 3.443 2.755 40.5 13.8 19.7 21.2 2009 05 14 06 03.11 +19 20.1 3.505 2.776 37.7 12.9 19.8 21.2 2009 05 19 06 11.69 +19 23.7 3.565 2.796 34.9 12.0 19.9 21.2 2009 05 24 06 20.26 +19 25.2 3.623 2.817 32.2 11.0 20.0 21.2 2009 05 29 06 28.80 +19 24.6 3.677 2.838 29.4 10.1 20.2 21.2 2009 06 03 06 37.32 +19 22.1 3.730 2.859 26.6 9.1 20.3 21.3 2009 06 08 06 45.79 +19 17.7 3.779 2.880 23.9 8.2 20.4 21.3 2009 06 13 06 54.21 +19 11.4 3.826 2.901 21.1 7.2 20.5 21.3 2009 06 18 07 02.58 +19 03.2 3.869 2.922 18.4 6.3 20.6 21.3 2009 06 23 07 10.88 +18 53.3 3.910 2.944 15.6 5.3 20.7 21.2 2009 06 28 07 19.10 +18 41.6 3.947 2.965 12.9 4.4 20.8 21.2 2009 07 03 07 27.25 +18 28.4 3.981 2.986 10.2 3.4 20.9 21.2 2009 07 08 07 35.30 +18 13.6 4.012 3.007 7.5 2.5 21.0 21.2 2009 07 13 07 43.25 +17 57.3 4.039 3.028 5.1 1.7 21.1 21.2 2009 07 18 07 51.11 +17 39.6 4.063 3.049 3.4 1.1 21.1 2009 07 23 07 58.86 +17 20.7 4.084 3.070 3.7 1.2 21.2 2009 07 28 08 06.49 +17 00.5 4.100 3.092 5.8 1.9 21.2 2009 08 02 08 14.00 +16 39.2 4.113 3.113 8.4 2.7 21.3 2009 08 07 08 21.38 +16 16.9 4.123 3.134 11.2 3.6 21.4 2009 08 12 08 28.63 +15 53.7 4.128 3.155 14.1 4.5 21.5 2009 08 17 08 35.75 +15 29.7 4.130 3.176 17.0 5.4 21.5 2009 08 22 08 42.72 +15 05.0 4.128 3.197 20.1 6.2 21.6 2009 08 27 08 49.54 +14 39.7 4.122 3.218 23.2 7.1 21.6 2009 09 01 08 56.19 +14 13.9 4.113 3.239 26.3 7.9 21.7 2009 09 06 09 02.69 +13 47.7 4.099 3.260 29.5 8.8 21.7 2009 09 11 09 09.01 +13 21.3 4.082 3.280 32.7 9.5 21.8 2009 09 16 09 15.15 +12 54.8 4.061 3.301 36.0 10.3 21.8 2009 09 21 09 21.10 +12 28.3 4.037 3.322 39.3 11.0 21.8 2009 09 26 09 26.86 +12 01.9 4.008 3.342 42.8 11.8 21.9 2009 10 01 09 32.40 +11 35.8 3.977 3.363 46.2 12.4 21.9 2009 10 06 09 37.73 +11 10.1 3.942 3.383 49.8 13.0 21.9 2009 10 11 09 42.82 +10 44.9 3.904 3.404 53.4 13.6 21.9 2009 10 16 09 47.67 +10 20.5 3.862 3.424 57.1 14.1 21.9

Back to Observable Comets

MPC CBAT ICQ

Valid HTML 4.01!